| time (UTC) | temp F | wind direction | speed knots | gust knots | rain 1hr in | rain 24hr in | rain mn in | humidity % | barometer mb |
| 20260906145518 | 73 | 0.0 | 1.7 | 0.00 | 0.00 | 0.00 | 85 | 1020.9 | |
| 20260906144518 | 73 | 113 | 0.9 | 4.3 | 0.00 | 0.00 | 0.00 | 85 | 1020.8 |
| 20260906143518 | 73 | 0.0 | 3.5 | 0.00 | 0.00 | 0.00 | 87 | 1020.7 | |
| 20260906142518 | 72 | 113 | 0.9 | 3.5 | 0.00 | 0.00 | 0.00 | 88 | 1020.5 |
| 20260906141538 | 71 | 113 | 0.9 | 6.1 | 0.00 | 0.00 | 0.00 | 89 | 1020.5 |
| 20260906140558 | 70 | 113 | 0.9 | 4.3 | 0.00 | 0.00 | 0.00 | 89 | 1020.6 |
| 20260906135518 | 70 | 113 | 0.9 | 5.2 | 0.00 | 0.00 | 0.00 | 90 | 1020.6 |
| 20260906134518 | 69 | 0.0 | 1.7 | 0.00 | 0.00 | 0.00 | 90 | 1020.6 | |
| 20260906133518 | 69 | 113 | 0.9 | 5.2 | 0.00 | 0.00 | 0.00 | 90 | 1020.7 |
| 20260906132518 | 69 | 113 | 0.9 | 2.6 | 0.00 | 0.00 | 0.00 | 91 | 1020.7 |
| 20260906131518 | 69 | 0.0 | 2.6 | 0.00 | 0.00 | 0.00 | 91 | 1020.5 | |
| 20260906130518 | 69 | 113 | 0.9 | 3.5 | 0.00 | 0.00 | 0.00 | 92 | 1020.5 |
| 20260906125518 | 68 | 0.0 | 1.7 | 0.00 | 0.00 | 0.00 | 92 | 1020.5 | |
| 20260906124518 | 68 | 90 | 0.9 | 2.6 | 0.00 | 0.00 | 0.00 | 92 | 1020.2 |
| 20260906123538 | 68 | 0.0 | 1.7 | 0.00 | 0.00 | 0.00 | 92 | 1020.2 | |
| 20260906122518 | 68 | 113 | 0.9 | 2.6 | 0.00 | 0.00 | 0.00 | 93 | 1020.1 |
| 20260906121518 | 68 | 113 | 0.9 | 4.3 | 0.00 | 0.00 | 0.00 | 93 | 1020.1 |
| 20260906120518 | 68 | 0.0 | 1.7 | 0.00 | 0.00 | 0.00 | 93 | 1020.2 | |
| 20260906115518 | 68 | 0.0 | 1.7 | 0.00 | 0.00 | 0.00 | 93 | 1020.2 | |
| 20260906114518 | 68 | 0.0 | 0.9 | 0.00 | 0.00 | 0.00 | 93 | 1020.0 | |
| 20260906113518 | 68 | 0.0 | 1.7 | 0.00 | 0.00 | 0.00 | 93 | 1020.0 | |
| 20260906112518 | 68 | 0.0 | 0.9 | 0.00 | 0.00 | 0.00 | 93 | 1020.0 | |
| 20260906111518 | 68 | 0.0 | 1.7 | 0.00 | 0.00 | 0.00 | 94 | 1020.0 | |
| 20260906110538 | 68 | 0.0 | 0.0 | 0.00 | 0.00 | 0.00 | 94 | 1020.0 | |
| 20260906105518 | 68 | 0.0 | 0.0 | 0.00 | 0.00 | 0.00 | 94 | 1019.9 | |
| 20260906104558 | 68 | 113 | 0.9 | 5.2 | 0.00 | 0.00 | 0.00 | 94 | 1019.5 |
| 20260906103518 | 67 | 0.0 | 0.9 | 0.00 | 0.00 | 0.00 | 94 | 1019.3 | |
| 20260906102518 | 67 | 0.0 | 0.9 | 0.00 | 0.00 | 0.00 | 94 | 1019.1 | |
| 20260906101538 | 67 | 0.0 | 0.0 | 0.00 | 0.00 | 0.00 | 93 | 1019.2 | |
| 20260906100518 | 68 | 0.0 | 0.9 | 0.00 | 0.00 | 0.00 | 93 | 1019.2 | |
| 20260906095518 | 68 | 0.0 | 1.7 | 0.00 | 0.00 | 0.00 | 93 | 1019.0 | |
| 20260906094518 | 68 | 0.0 | 2.6 | 0.00 | 0.00 | 0.00 | 93 | 1018.9 | |
| 20260906093518 | 68 | 0.0 | 0.9 | 0.00 | 0.00 | 0.00 | 93 | 1018.9 | |
| 20260906092518 | 68 | 0.0 | 4.3 | 0.00 | 0.00 | 0.00 | 93 | 1018.8 | |
| 20260906091518 | 68 | 0.0 | 0.9 | 0.00 | 0.00 | 0.00 | 93 | 1018.6 | |
| 20260906090518 | 68 | 0.0 | 1.7 | 0.00 | 0.00 | 0.00 | 93 | 1018.5 | |
| 20260906085518 | 69 | 0.0 | 3.5 | 0.00 | 0.00 | 0.00 | 92 | 1018.4 | |
| 20260906084518 | 69 | 0.0 | 0.9 | 0.00 | 0.00 | 0.00 | 92 | 1018.3 | |
| 20260906083518 | 69 | 0.0 | 1.7 | 0.00 | 0.00 | 0.00 | 92 | 1018.7 | |
| 20260906082538 | 69 | 0.0 | 1.7 | 0.00 | 0.00 | 0.00 | 92 | 1018.8 | |
| 20260906081518 | 69 | 0.0 | 1.7 | 0.00 | 0.00 | 0.00 | 92 | 1018.9 | |
| 20260906080518 | 69 | 0.0 | 0.9 | 0.00 | 0.00 | 0.00 | 92 | 1019.0 | |
| 20260906075518 | 69 | 0.0 | 1.7 | 0.00 | 0.00 | 0.00 | 92 | 1019.0 | |
| 20260906074518 | 69 | 0.0 | 0.9 | 0.00 | 0.00 | 0.00 | 92 | 1018.9 | |
| 20260906073538 | 69 | 0.0 | 1.7 | 0.00 | 0.00 | 0.00 | 92 | 1018.9 | |
| 20260906072517 | 69 | 0.0 | 1.7 | 0.00 | 0.00 | 0.00 | 91 | 1018.9 | |
| 20260906071518 | 69 | 0.0 | 0.9 | 0.00 | 0.00 | 0.00 | 92 | 1019.0 | |
| 20260906070517 | 70 | 0.0 | 0.9 | 0.00 | 0.00 | 0.00 | 91 | 1019.0 | |
| 20260906065518 | 70 | 0.0 | 0.9 | 0.00 | 0.00 | 0.00 | 91 | 1019.1 | |
| 20260906064517 | 70 | 0.0 | 0.0 | 0.00 | 0.00 | 0.00 | 91 | 1019.1 | |
| 20260906063518 | 70 | 0.0 | 1.7 | 0.00 | 0.00 | 0.00 | 91 | 1019.1 | |
| 20260906062517 | 70 | 0.0 | 3.5 | 0.00 | 0.00 | 0.00 | 91 | 1019.2 | |
| 20260906061538 | 70 | 0.0 | 0.0 | 0.00 | 0.00 | 0.00 | 91 | 1019.2 | |
| 20260906060518 | 70 | 0.0 | 0.0 | 0.00 | 0.00 | 0.00 | 90 | 1019.3 | |
| 20260906055517 | 70 | 0.0 | 0.0 | 0.00 | 0.00 | 0.00 | 90 | 1019.5 | |
| 20260906054537 | 71 | 0.0 | 0.9 | 0.00 | 0.00 | 0.00 | 90 | 1019.4 | |
| 20260906053518 | 71 | 0.0 | 0.0 | 0.00 | 0.00 | 0.00 | 90 | 1019.4 | |
| 20260906052518 | 71 | 0.0 | 0.0 | 0.00 | 0.00 | 0.00 | 90 | 1019.5 | |
| 20260906051537 | 71 | 0.0 | 0.0 | 0.00 | 0.00 | 0.00 | 90 | 1019.6 | |
| 20260906050517 | 71 | 0.0 | 0.9 | 0.00 | 0.00 | 0.00 | 90 | 1019.3 | |
| 20260906045537 | 71 | 0.0 | 0.9 | 0.00 | 0.00 | 0.00 | 91 | 1019.3 | |
| 20260906044537 | 71 | 0.0 | 0.0 | 0.00 | 0.00 | 0.00 | 90 | 1019.3 | |
| 20260906043517 | 71 | 0.0 | 0.0 | 0.00 | 0.00 | 0.00 | 90 | 1019.2 | |
| 20260906042557 | 71 | 0.0 | 0.0 | 0.00 | 0.00 | 0.00 | 90 | 1019.2 | |
| 20260906041517 | 71 | 0.0 | 0.0 | 0.00 | 0.00 | 0.00 | 90 | 1019.2 | |
| 20260906040517 | 71 | 0.0 | 0.0 | 0.00 | 0.00 | 0.00 | 90 | 1019.1 | |
| 20260906035517 | 72 | 0.0 | 0.0 | 0.00 | 0.00 | 0.00 | 90 | 1019.2 | |
| 20260906034517 | 71 | 0.0 | 0.0 | 0.00 | 0.00 | 0.00 | 91 | 1019.2 | |
| 20260906033517 | 72 | 0.0 | 0.0 | 0.00 | 0.00 | 0.00 | 90 | 1019.2 | |
| 20260906032517 | 72 | 0.0 | 0.0 | 0.00 | 0.00 | 0.00 | 90 | 1019.2 | |
| 20260906031517 | 72 | 0.0 | 0.0 | 0.00 | 0.00 | 0.00 | 90 | 1019.1 | |
| 20260906030517 | 72 | 0.0 | 0.0 | 0.00 | 0.00 | 0.00 | 90 | 1019.1 | |
| 20260906025517 | 72 | 0.0 | 0.0 | 0.00 | 0.00 | 0.00 | 90 | 1019.0 | |
| 20260906024517 | 72 | 0.0 | 0.0 | 0.00 | 0.00 | 0.00 | 90 | 1019.0 | |
| 20260906023517 | 72 | 0.0 | 0.0 | 0.00 | 0.00 | 0.00 | 89 | 1018.8 | |
| 20260906022517 | 73 | 0.0 | 0.0 | 0.00 | 0.00 | 0.00 | 89 | 1018.5 | |
| 20260906021517 | 73 | 0.0 | 0.9 | 0.00 | 0.00 | 0.00 | 89 | 1018.3 | |
| 20260906020557 | 73 | 0.0 | 0.0 | 0.00 | 0.00 | 0.00 | 88 | 1018.1 | |
| 20260906015517 | 73 | 0.0 | 0.0 | 0.00 | 0.00 | 0.00 | 88 | 1017.9 | |
| 20260906014517 | 73 | 0.0 | 0.0 | 0.00 | 0.00 | 0.00 | 88 | 1017.9 | |
| 20260906013517 | 74 | 0.0 | 0.0 | 0.00 | 0.00 | 0.00 | 88 | 1017.8 | |
| 20260906012517 | 74 | 0.0 | 1.7 | 0.00 | 0.00 | 0.00 | 87 | 1017.6 | |
| 20260906011537 | 74 | 0.0 | 0.9 | 0.00 | 0.00 | 0.00 | 87 | 1017.5 | |
| 20260906010557 | 74 | 0.0 | 0.9 | 0.00 | 0.00 | 0.00 | 87 | 1017.4 | |
| 20260906005537 | 74 | 0.0 | 0.9 | 0.00 | 0.00 | 0.00 | 88 | 1017.5 | |
| 20260906004517 | 74 | 0.0 | 0.0 | 0.00 | 0.00 | 0.00 | 87 | 1017.3 | |
| 20260906003517 | 74 | 0.0 | 0.0 | 0.00 | 0.00 | 0.00 | 87 | 1017.1 | |
| 20260906002517 | 75 | 0.0 | 0.0 | 0.00 | 0.00 | 0.00 | 87 | 1017.2 | |
| 20260906001517 | 75 | 0.0 | 0.0 | 0.00 | 0.00 | 0.00 | 86 | 1017.2 | |
| 20260906000517 | 76 | 0.0 | 0.0 | 0.00 | 0.00 | 0.00 | 85 | 1017.4 | |
| 20260905235517 | 76 | 0.0 | 0.9 | 0.00 | 0.00 | 0.00 | 85 | 1017.3 | |
| 20260905234517 | 76 | 0.0 | 1.7 | 0.00 | 0.00 | 0.00 | 85 | 1017.3 | |
| 20260905233517 | 76 | 0.0 | 0.0 | 0.00 | 0.00 | 0.00 | 85 | 1017.1 | |
| 20260905232517 | 76 | 0.0 | 2.6 | 0.00 | 0.00 | 0.00 | 84 | 1017.1 | |
| 20260905231517 | 76 | 90 | 0.9 | 2.6 | 0.00 | 0.00 | 0.00 | 84 | 1017.0 |
| 20260905230517 | 76 | 0.0 | 2.6 | 0.00 | 0.00 | 0.00 | 84 | 1017.0 | |
| 20260905225517 | 77 | 0.0 | 0.9 | 0.00 | 0.00 | 0.00 | 83 | 1017.0 | |
| 20260905224517 | 77 | 113 | 0.9 | 3.5 | 0.00 | 0.00 | 0.00 | 84 | 1016.8 |
| 20260905223517 | 77 | 113 | 1.7 | 3.5 | 0.00 | 0.00 | 0.00 | 84 | 1016.6 |
| 20260905222517 | 77 | 113 | 0.9 | 4.3 | 0.00 | 0.00 | 0.00 | 84 | 1016.6 |
| 20260905221517 | 77 | 113 | 0.9 | 4.3 | 0.00 | 0.00 | 0.00 | 84 | 1016.6 |
| 20260905220516 | 77 | 113 | 0.9 | 3.5 | 0.00 | 0.00 | 0.00 | 84 | 1016.7 |
| 20260905215517 | 78 | 113 | 0.9 | 3.5 | 0.00 | 0.00 | 0.00 | 83 | 1016.7 |
| 20260905214517 | 78 | 0.0 | 2.6 | 0.00 | 0.00 | 0.00 | 84 | 1016.7 | |
| 20260905213517 | 78 | 113 | 0.9 | 3.5 | 0.00 | 0.00 | 0.00 | 83 | 1016.7 |
| 20260905212557 | 78 | 113 | 0.9 | 2.6 | 0.00 | 0.00 | 0.00 | 83 | 1016.8 |
| 20260905211516 | 78 | 90 | 0.9 | 3.5 | 0.00 | 0.00 | 0.00 | 83 | 1017.1 |
| 20260905210516 | 79 | 113 | 0.9 | 3.5 | 0.00 | 0.00 | 0.00 | 82 | 1017.1 |
| 20260905205557 | 79 | 0.0 | 1.7 | 0.00 | 0.00 | 0.00 | 83 | 1017.2 | |
| 20260905204516 | 79 | 90 | 0.9 | 2.6 | 0.00 | 0.00 | 0.00 | 83 | 1017.3 |
| 20260905203517 | 79 | 90 | 0.9 | 4.3 | 0.00 | 0.00 | 0.00 | 83 | 1017.4 |
| 20260905202517 | 79 | 90 | 0.9 | 1.7 | 0.00 | 0.00 | 0.00 | 83 | 1017.7 |
| 20260905201517 | 79 | 68 | 0.9 | 1.7 | 0.00 | 0.00 | 0.00 | 82 | 1017.8 |
| 20260905200516 | 79 | 0.0 | 1.7 | 0.00 | 0.00 | 0.00 | 82 | 1018.0 | |
| 20260905195557 | 79 | 0.0 | 2.6 | 0.00 | 0.00 | 0.00 | 82 | 1018.3 | |
| 20260905194536 | 78 | 0.0 | 1.7 | 0.00 | 0.00 | 0.00 | 83 | 1018.3 | |
| 20260905193516 | 78 | 0.0 | 0.9 | 0.00 | 0.00 | 0.00 | 83 | 1018.4 | |
| 20260905192536 | 77 | 0.0 | 1.7 | 0.00 | 0.00 | 0.00 | 84 | 1018.6 | |
| 20260905191517 | 77 | 0.0 | 0.9 | 0.00 | 0.00 | 0.00 | 85 | 1018.5 | |
| 20260905190516 | 77 | 0.0 | 0.9 | 0.00 | 0.00 | 0.00 | 84 | 1018.6 | |
| 20260905185556 | 77 | 0.0 | 0.0 | 0.00 | 0.00 | 0.00 | 84 | 1018.8 | |
| 20260905184517 | 78 | 0.0 | 1.7 | 0.00 | 0.00 | 0.00 | 84 | 1018.7 | |
| 20260905183516 | 78 | 0.0 | 1.7 | 0.00 | 0.00 | 0.00 | 84 | 1018.5 | |
| 20260905182516 | 77 | 90 | 0.9 | 2.6 | 0.00 | 0.00 | 0.00 | 83 | 1018.8 |
| 20260905181516 | 77 | 0.0 | 0.9 | 0.00 | 0.00 | 0.00 | 85 | 1019.0 | |
| 20260905180518 | 76 | 0.0 | 1.7 | 0.00 | 0.00 | 0.00 | 85 | 1019.1 | |
| 20260905175518 | 76 | 0.0 | 0.9 | 0.00 | 0.00 | 0.00 | 85 | 1019.1 | |
| 20260905174538 | 77 | 0.0 | 1.7 | 0.00 | 0.00 | 0.00 | 86 | 1019.2 | |
| 20260905173518 | 76 | 0.0 | 0.9 | 0.00 | 0.00 | 0.00 | 86 | 1019.5 | |
| 20260905172518 | 76 | 0.0 | 0.9 | 0.00 | 0.00 | 0.00 | 87 | 1019.5 | |
| 20260905171518 | 75 | 0.0 | 1.7 | 0.00 | 0.00 | 0.00 | 87 | 1019.6 | |
| 20260905170518 | 75 | 0.0 | 0.9 | 0.00 | 0.00 | 0.00 | 87 | 1019.7 | |
| 20260905165518 | 75 | 0.0 | 0.9 | 0.00 | 0.00 | 0.00 | 87 | 1019.6 | |
| 20260905164518 | 75 | 0.0 | 2.6 | 0.00 | 0.00 | 0.00 | 88 | 1019.3 | |
| 20260905163518 | 75 | 0.0 | 2.6 | 0.00 | 0.00 | 0.00 | 88 | 1019.3 | |
| 20260905162518 | 74 | 0.0 | 0.9 | 0.00 | 0.00 | 0.00 | 88 | 1019.2 | |
| 20260905161518 | 74 | 0.0 | 0.9 | 0.00 | 0.00 | 0.00 | 89 | 1019.2 | |
| 20260905160518 | 74 | 0.0 | 1.7 | 0.00 | 0.00 | 0.00 | 89 | 1019.2 | |
| 20260905155518 | 74 | 0.0 | 0.9 | 0.00 | 0.00 | 0.00 | 89 | 1019.3 | |
| 20260905154518 | 74 | 0.0 | 0.9 | 0.00 | 0.00 | 0.00 | 90 | 1019.2 | |
| 20260905153518 | 73 | 0.0 | 0.9 | 0.00 | 0.00 | 0.00 | 90 | 1019.1 | |
| 20260905152518 | 73 | 0.0 | 1.7 | 0.00 | 0.00 | 0.00 | 91 | 1019.0 | |
| 20260905151518 | 73 | 0.0 | 1.7 | 0.00 | 0.00 | 0.00 | 91 | 1019.0 | |
| 20260905150518 | 72 | 0.0 | 0.9 | 0.00 | 0.00 | 0.00 | 92 | 1018.9 |